Regional Weather Roundup
Issued by NWS Sterling, VA

Home | Current Version | Previous Version | Graphics & Text | Print | Product List | Glossary On
Versions: 1 2 3 4 5 6 7 8 9 10 11 12 13 14 15 16 17 18 19 20 21 22 23 24 25 26 27 28
000
ASUS41 KLWX 200511
RWRLWX

REGIONAL WEATHER ROUNDUP
NATIONAL WEATHER SERVICE BALTIMORE MD/WASHINGTON DC
100 AM EDT FRI APR 20 2018

Note: "FAIR" indicates few or no clouds below 12,000 feet
with no significant weather and/or obstructions to visibility.
 TC=TEMPERATURE CELSIUS

 * =Non NWS site. Station does not report precipitation (e.g. rain,
    snow, etc.), thunder, or fog.

DCZ001-MDZ009-015-VAZ040>042-051-053>054-200600-
WASHINGTON METRO

CITY           SKY/WX    TMP DP  RH WIND       PRES   REMARKS
WASHINGTON NAT FAIR      44  22  41 NW8G17    30.18R
DULLES         FAIR      38  25  59 NW6       30.17R WCI  33
ANDREWS AFB    FAIR      43  21  42 NW18G26   30.15R WCI  34
FT BELVOIR     FAIR      36  27  69 CALM      30.18R
QUANTICO       FAIR      45  27  49 SW3       30.19S
COLLEGE PARK*  FAIR      41  21  44 NW5       30.16R
LEESBURG*      FAIR      41  28  60 N3        30.19R
MANASSAS*      FAIR      40  27  59 W6        30.19R
GAITHERSBURG*  FAIR      39  20  46 NW12G18   30.16R WCI  32

$$

MDZ006>007-011-014-200600-
BALTIMORE METRO

CITY           SKY/WX    TMP DP  RH WIND       PRES   REMARKS
BWI AIRPORT    FAIR      39  23  52 W9        30.15R WCI  33
MD SCIENCE CTR   N/A     44  20  38 MISG      30.15R
MARTIN STATE   FAIR      39  28  65 W12       30.16R WCI  32
ANNAPOLIS      FAIR      44  28  53 W7        30.15R
FORT MEADE*    FAIR      36  23  60 NW5       30.19R WCI  32

$$

MDZ012-015-019>023-200600-
MARYLAND EASTERN SHORE

CITY           SKY/WX    TMP DP  RH WIND       PRES   REMARKS
OCEAN CITY     FAIR      39  26  59 NW7       30.14R WCI  34
SALISBURY      FAIR      41  26  55 W5        30.14R
BAY BRIDGE AP* FAIR      43  27  52 NW14G20   30.15S
CAMBRIDGE*       N/A    N/A N/A N/A MISG        N/A
EASTON*        FAIR      43  26  51 NW10G16   30.18S

$$

MDZ017>025-200600-
SOUTHERN MARYLAND

CITY           SKY/WX    TMP DP  RH WIND       PRES   REMARKS
PATUXENT RIVER FAIR      45  27  49 W8        30.16S
ST INIGOES     FAIR      42  29  59 W8        30.16R
LEONARDTOWN*   FAIR      37  28  70 W5        30.18S WCI  34

$$

MDZ003>005-200600-
NORTH CENTRAL MARYLAND

CITY           SKY/WX    TMP DP  RH WIND       PRES   REMARKS
FREDERICK*     FAIR      39  18  41 NW7       30.20R WCI  34
HAGERSTOWN APT FAIR      38  22  52 NW12G23   30.16R WCI  30
WESTMINSTER*   FAIR      37  21  52 NW9       30.14R WCI  31

$$

MDZ501>502-200600-
WESTERN MARYLAND

CITY           SKY/WX    TMP DP  RH WIND       PRES   REMARKS
OAKLAND*       FAIR      28  21  74 NW9G20    30.12R WCI  20
CUMBERLAND*    FAIR      37  23  56 NW9       30.23R WCI  31

$$

VAZ025>031-200600-
SHENANDOAH VALLEY

CITY           SKY/WX    TMP DP  RH WIND       PRES   REMARKS
WINCHESTER*    FAIR      36  27  69 NW6       30.18R WCI  31
FRONT ROYAL*   FAIR      43  27  52 NW13G21   30.17R
LURAY*         FAIR      43  27  52 W8        30.17R
NEW MARKET*    FAIR      41  26  55 CALM      30.18R
STAUNTON*      MOCLDY    32  26  78 CALM      30.19S
WAYNESBORO*    FAIR      37  26  62 W6        30.17S WCI  33

$$

WVZ021-048>050-054>055-200600-
EASTERN WEST VIRGINIA PANHANDLE

CITY           SKY/WX    TMP DP  RH WIND       PRES   REMARKS
MARTINSBURG    FAIR      40  21  46 NW10      30.16R WCI  33
PETERSBURG*    MOCLDY    42  27  55 NW10G17   30.20R

$$

VAZ036>039-050-200600-
CENTRAL FOOTHILLS

CITY           SKY/WX    TMP DP  RH WIND       PRES   REMARKS
CHARLOTTESVILL FAIR      42  25  50 S3        30.18S
CULPEPER*      FAIR      34  26  74 CALM      30.19R
ORANGE*        FAIR      41  27  56 CALM      30.18S
GORDONSVILLE*  FAIR      35  29  79 CALM      30.18S
WARRENTON*     FAIR      37  25  63 CALM      30.18R

$$

VAZ055>057-200600-
NORTH AND CENTRAL PIEDMONT

CITY           SKY/WX    TMP DP  RH WIND       PRES   REMARKS
FREDERICKSBRG* FAIR      38  31  77 SW5       30.18S WCI  34
STAFFORD*      FAIR      36  30  80 CALM      30.23R

$$

NCZ024-NYZ072-PAZ021-071-VAZ022-071-200600-
OTHER REGIONAL OBSERVATIONS

CITY           SKY/WX    TMP DP  RH WIND       PRES   REMARKS
NEW YORK CITY  FAIR      38  23  55 W9        30.04R WCI  31
PHILADELPHIA   FAIR      41  22  46 NW14      30.10R WCI  33
PITTSBURGH     FAIR      33  23  66 NW9       30.26R WCI  25
ROANOKE        MOCLDY    43  26  51 VRB6      30.24F
RICHMOND       FAIR      43  26  51 NW9       30.19S
RALEIGH        FAIR      45  29  53 VRB6      30.23R

$$

ANZ530>537-200600-
MARINE OBSERVATIONS

STATION/POSITION TIME  TEMP    WIND        PRES
                       AIR SEA DIR/SP/G
                 (UTC) (F)     (DEG/KT/KT) (MB)
THOMAS PT LIGHT  0500   43 49  310/ 13/ 15 1022.1R
BALT KEY BRIDGE  0442   43     290/ 10/ 12 1020.8R
COVE POINT       0442   44     330/ 11/ 15 1021.9R
LEWISETTA        0442   46 54  330/ 14/ 19 1021.6S
SOLOMONS ISLAND  0442   44 52  310/  7/  9 1021.0R
PINEY POINT      0442          340/ 19/ 21   N/A

$$





USA.gov is the U.S. government's official web portal to all federal, state and local government web resources and services.